Regional Weather Roundup
Issued by NWS State College, PA

Home | Current Version | Previous Version | Text Only | Print | Product List | Glossary Off
Versions: 1 2 3 4 5 6 7 8 9 10 11 12 13 14 15 16 17 18 19 20 21 22 23 24 25 26 27 28 29 30 31 32 33 34 35 36 37 38 39 40 41 42 43 44 45 46 47 48 49 50

000
ASUS41 KCTP 270703
RWRCTP

REGIONAL WEATHER ROUNDUP
NATIONAL WEATHER SERVICE STATE COLLEGE PA
300 AM EDT WED JUL 27 2016

Note: "fair" indicates few or no clouds below 12,000 feet with no
significant weather and/or obstructions to visibility.

* = STATION THAT DOES NOT REPORT PRECIPITATION /E.G. RAIN...SNOW...ETC/
    THUNDER OR FOG.

PAZ002>004-007>009-013>016-020>023-029>032-270800-
WESTERN PENNSYLVANIA

CITY           SKY/WX    TMP DP  RH WIND       PRES   REMARKS
ERIE           CLEAR     65  59  81 S6        30.00F
MEADVILLE      CLEAR     59  56  89 CALM      30.04F
FRANKLIN*      CLEAR     59  55  88 CALM      30.06F
NEW CASTLE     PTSUNNY   63  61  93 CALM      30.04S
BEAVER COUNTY  NOT AVBL
BUTLER*        CLOUDY    63  61  94 CALM      30.06S
PITTSBURGH INT CLOUDY    72  61  68 CALM      30.02F
PITTSBURGH     PTCLDY    72  58  61 CALM      30.02F
INDIANA*       CLOUDY    66  63  88 CALM      30.07S
LATROBE        PTCLDY    66  66 100 CALM      30.03F
WASHINGTON CO* CLOUDY    66  63  88 CALM      30.03F
$$

PAZ004>006-010>012-017>019-024>028-033>037-041-042-045-046-049>053-270800-
CENTRAL PENNSYLVANIA

CITY           SKY/WX    TMP DP  RH WIND       PRES   REMARKS
BRADFORD       CLEAR     53  51  93 CALM      30.06S
DUBOIS         PTCLDY    61  57  87 CALM      30.05S
CLEARFIELD     PTCLDY    60  57  89 N6        30.05S
JOHNSTOWN      CLOUDY    69  54  58 W3        30.07F
ALTOONA        CLOUDY    66  59  78 SE3       30.03F
STATE COLLEGE  PTCLDY    68  60  75 W5        30.02R
WILLIAMSPORT   PTCLDY    67  61  81 NW5       29.98S
SELINSGROVE    MOCLDY    66  66 100 CALM      29.98S
FT INDIANTOWN  PTCLDY    75  63  64 VRB5      29.95S
CAPITAL CITY   CLOUDY    77  63  61 VRB3      29.95R
HARRISBURG     CLOUDY    77  65  66 NW7       29.93S
YORK           CLOUDY    73  68  84 W5        29.95S
$$

PAZ038>040-043-044-047-048-054-055-060>062-067>071-270800-
EASTERN PENNSYLVANIA

CITY           SKY/WX    TMP DP  RH WIND       PRES   REMARKS
SCRANTON       CLEAR     66  60  81 E7        29.99S
MOUNT POCONO   CLOUDY    60  57  89 CALM      30.03S
ALLENTOWN      PTCLDY    70  64  81 CALM      29.96S
QUAKERTOWN*    PTSUNNY   70  66  88 CALM      29.97S
READING        CLOUDY    75  64  68 N5        29.94S
LANCASTER      CLOUDY    74  70  87 NE3       29.93F
COATESVILLE    CLOUDY    75  72  88 N3        29.96F
POTTSTOWN      CLOUDY    73  65  75 NE3       29.96S
BLUE BELL      CLOUDY    70  68  94 CALM      29.93S
DOYLESTOWN     PTCLDY    71  64  78 CALM      29.95S
WILLOW GROVE   NOT AVBL
NORTH PHILA    MOCLDY    77  67  71 NE5       29.94F
PHILADELPHIA   CLOUDY    79  67  66 NE6       29.93S
$$




USA.gov is the U.S. government's official web portal to all federal, state and local government web resources and services.